Main page
Satellite images Climate Cyclones Lightning AirportsFAQ Languages Contact Newsletter About
Weather : Europe Africa North America South America Asia Australia-Oceania Others

5595, Ho Chi Minh City, Tan Son Nhat International Airport

latitude: , longitude: Vietnam, elevation: 10-49N m


METAR: VVTS 211700Z VRB01KT 8000 SCT015 BKN040 25/25 Q1008 NOSIG